Location: London
(51.5074°N, 0.1278°W)
Time: 07:46:45
(UTC+00:00)

TIGRISAT - Pass Details

Date: 05 October 2020
Orbit: 606 x 688 km, 97.7° (Epoch: 30 October)

Event Time Altitude Azimuth Distance (km) Brightness Sun altitude
Rises 21:34:47 0° 11° (N) 2,993 ? -28.8°
Reaches altitude 10° 21:37:00 10° 8° (N) 2,090 ? -29.1°
Enters shadow 21:39:50 37° 353° (N) 1,049 ? -29.4°
